2017-030B

Last updated on Mon Jun 05 2017 00:15:04 GMT+0000 (Coordinated Universal Time)

1 42745U 17030B 17155.33857282 -.00003585 11333-4 00000-0 0 9997 2 42745 51.6504 102.5040 0116767 46.6800 83.7940 15.97460378 77
UTC large
Height (km)
Speed (km/s)
/
Latitude / Longitude
Inclination (degrees)
Orbital Period (minutes)
Azimuth
Elevation
Range (km)
Doppler Factor

Next 0 passes for location: London (51.5072 / 0.1276)

Sorry there are no passes over London.
2017-030B